User: anonymous   Login
Location: Unspecified
(0.0000°N, 0.0000°E)
Time: 00:14:23
(UTC+00:00)
Language:

TET - Orbit

View from above orbital plane
View from above orbital plane
View from above satellite
View from above satellite

Ground track
Ground track

The orbit data is extracted from the following two-line orbital elements,

1 38710U 12039D   18112.56885516 +.00003988 +00000-0 +79910-4 0  9999
2 38710 097.5868 087.1341 0002545 127.2409 232.9072 15.47374483322052
Epoch (UTC): 22 April 2018 13:39:09
Eccentricity: 0.0002545
inclination: 97.5868°
perigee height: 422 km
apogee height: 426 km
right ascension of ascending node: 87.1341°
argument of perigee: 127.2409°
revolutions per day: 15.47374483
mean anomaly at epoch: 232.9072°
orbit number at epoch: 32205

The dashed part of the orbit path shows where the satellite is in the earth's shadow,  

DLR